STARLINK-5685, 55477

Orbit data source: Space-Track

STARLINK-5685, 55477 is a payload satellite owned by SpaceX/Seattle (US) in LEO that was launched on Thu, 02 Feb 2023 UTC via an FALCON 9 launch vehicle from the Air Force Eastern Test Range (AFETR). Payload-class satellites include a variety of spacecraft equipped with specific instruments for various scientific and technological missions. These include communications satellites like Starlink; space stations such as the ISS; scientific satellites like the Hubble; Earth observation satellites from companies like Planet Labs, Umbra, and HawkEye 360; GPS; miniature CubeSats for education and research; and military/defense satellites.

Loading next visibility...
Identifier
55477, 2023-015AE
Orbit
LEO
Country
Flag of USUS
Related business
Manufacturer
SpaceX/Seattle
Mission
Operational Commercial Communications
Bus & Motor
STARLINK, Unknown motor
Mass
305 kg wet, ~290 kg dry
Launch date (UTC)
2023-02-02 (3 years ago)
Launch vehicle
FALCON 9
Launch site
Air Force Eastern Test Range (AFETR)
Object type
Payload
Rocket body
Debris
Shape & HBR
Box + 1 Pan, 4.4 m
Radar Cross Section
13.562 m², Large (>1 m²)

Expand to show TLE details & history
Last TLE update: 14 hours ago

TLE from 14 hours ago
0 STARLINK-5685
1 55477U 23015AE  25259.15701467  .00001004  00000-0  89383-4 0  9993
2 55477  43.0015 181.8636 0001118 273.0173  87.0541 15.02540240144647
Epoch: 2025-09-16T03:46Z
TLE epoch observation values (Epoch: 2025-09-16T03:46:06.067Z)
Latitude
-0.00004°
Longitude
129.98692°
Altitude
558.805 km
Speed
7.584 km/s
True Right ascension
12h 07m 27s
True Declination
0° 00' 00"
Sunlit
Object was in daylight at epoch
Visualization orbit readout
Latitude
Unknown
Longitude
Unknown
Altitude
Unknown
Speed
Unknown
Apparent Right ascension
Unknown
Apparent Declination
Unknown
Sunlit
N/A
Visualization observer readout
Local Sidereal Time
10:28:34
Azimuth
Unknown
Elevation
Unknown
Doppler factor
Unknown
Orbital elements
Apogee altitude
561.766 km
Perigee altitude
560.214 km
Semi-major axis
6,939.127 km
Eccentricity
0.00011
Inclination
43.0015°
RAAN
181.8636°
Arg. of periapsis
273.0173°
True anomaly
87.06689°
Mean anomaly
87.0541°
Eccentric anomaly
87.0605°
Mean motion
3.75479 °/min
Orbital period
95.88 mins
BSTAR
0.000089383
Loading maneuver chart data...
Computing Atmospheric mass density...
Loading historical data...
Loading historical data...
Loading historical data...
Loading historical data...
Loading historical data...
Loading historical data...
Loading historical data...

Documentation

Showing up to 5 results
|